Weather observations for the past three days for
Topeka, Philip Billard Municipal Airport
Metric (Imperial)
Date Time (cdt) Wind (kph) Vis. (km) Weather Sky Cond. Temperature (ºC) Relative Humidity Wind Chill (°C) Heat Index (°C) Pressure Precipitation (cm)
Air Dwpt 6 hour altimeter (cm) sea level (mb) 1 hr 3 hr 6 hr
Max. Min.
22 02:53 S 22 G 37 16.09 Fair CLR 27.2 18.9 61% 28 76.12 1013.8
22 01:53 S 15 16.09 Fair CLR 27.2 19.4 62% 29 76.17 1014.6
22 00:53 S 15 16.09 Fair CLR 27.2 20 32.8 27.2 65% 29 76.2 1014.8
21 23:53 S 20 G 31 16.09 Fair CLR 27.8 20.6 65% 30 76.17 1014.5
21 22:53 S 17 16.09 Fair CLR 28.3 20.6 63% 30 76.2 1014.7
21 21:53 S 15 16.09 Fair CLR 28.9 20.6 61% 31 76.17 1014.5
21 20:53 S 13 16.09 Fair CLR 30 21.1 59% 33 76.15 1014.1
21 19:53 S 19 16.09 Fair CLR 31.7 21.1 53% 35 76.17 1014.4
21 18:53 S 17 16.09 Fair CLR 32.8 20.6 33.3 27.8 49% 36 76.17 1014.6
21 17:53 S 20 16.09 A Few Clouds FEW090 32.2 21.1 52% 35 76.23 1015.4
21 16:53 S 19 16.09 A Few Clouds FEW060 32.8 21.7 52% 36 76.3 1016.2
21 15:53 S 13 G 28 16.09 Partly Cloudy FEW039 SCT090 32.8 22.2 54% 37 76.35 1016.8
21 14:53 SW 17 16.09 Partly Cloudy SCT036 SCT095 32.2 23.9 62% 38 76.43 1017.9
21 13:53 W 24 G 37 12.87 Light Rain SCT036 SCT060 BKN090 28.9 22.8 70% 32 76.5 1018.8
21 12:53 SW 20 G 37 16.09 Partly Cloudy FEW032 SCT042 31.1 22.2 31.7 25 59% 35 76.5 1019.0
21 11:53 SW 22 G 31 16.09 A Few Clouds FEW034 31.1 22.2 59% 35 76.56 1019.7
21 10:53 S 17 G 35 16.09 Fair CLR 29.4 22.8 68% 33 76.58 1020.1
21 09:53 S 19 16.09 Fair CLR 27.8 22.2 72% 30 76.61 1020.2
21 08:53 S 17 16.09 Fair CLR 27.8 21.7 69% 30 76.63 1020.5
21 07:53 S 9 16.09 Fair CLR 25.6 21.1 76% 27 76.66 1020.9
21 06:53 SE 6 16.09 Fair CLR 25 21.1 25 23.3 79% 26 76.63 1020.6
21 05:53 Calm 16.09 Fair CLR 23.9 20.6 82% 24 76.61 1020.5
21 04:53 E 6 16.09 Fair CLR 23.9 20.6 82% 24 76.61 1020.4
21 03:53 SE 6 16.09 Fair CLR 24.4 20.6 79% 25 76.61 1020.3
21 02:53 Calm 16.09 Partly Cloudy SCT095 24.4 20.6 79% 25 76.63 1020.6
21 01:53 E 6 16.09 Mostly Cloudy BKN100 24.4 20.6 79% 25 76.66 1021.1
21 00:53 NE 6 16.09 Fair CLR 24.4 21.1 31.7 23.9 82% 25 76.68 1021.2
20 23:53 Calm 16.09 Fair CLR 24.4 21.1 82% 25 76.66 1021.0
20 22:53 SE 7 16.09 Fair CLR 25.6 20.6 74% 27 76.61 1020.4
20 21:53 SE 7 16.09 Fair CLR 26.7 21.1 71% 28 76.58 1020.0
20 20:53 SE 7 16.09 Fair CLR 27.8 21.1 67% 30 76.56 1019.6
20 19:53 SE 11 16.09 Fair CLR 30 20.6 57% 32 76.53 1019.4
20 18:53 S 15 16.09 A Few Clouds FEW095 31.7 20.6 33.3 30.6 52% 34 76.56 1019.5
20 17:53 SE 17 16.09 Mostly Cloudy FEW055 SCT070 BKN095 31.7 21.1 53% 35 76.58 1020.0
20 16:53 S 17 16.09 A Few Clouds FEW080 32.2 20.6 50% 35 76.63 1020.7
20 15:53 S 17 G 28 16.09 Fair CLR 33.3 20.6 47% 36 76.68 1021.4
20 14:53 SE 19 16.09 Fair CLR 32.8 20.6 49% 36 76.73 1022.0
20 13:53 S 13 16.09 Partly Cloudy FEW070 SCT095 30.6 21.7 59% 34 76.78 1022.7
20 12:53 S 15 16.09 Mostly Cloudy SCT033 SCT042 BKN055 31.1 21.7 31.1 23.3 57% 34 76.81 1023.1
20 11:53 SW 9 16.09 A Few Clouds FEW024 FEW030 30 22.2 63% 33 76.84 1023.4
20 10:53 S 11 16.09 A Few Clouds FEW019 28.3 22.2 70% 31 76.84 1023.6
20 09:53 Calm 16.09 Fair CLR 26.7 21.7 74% 29 76.84 1023.5
20 08:53 SE 7 16.09 Mostly Cloudy BKN008 25 22.2 85% 26 76.84 1023.6
20 07:53 SE 15 11.27 Overcast OVC006 23.9 21.7 88% 24 76.81 1023.3
20 06:53 E 7 4.83 Fog/Mist OVC003 23.3 21.7 23.3 22.2 91% 76.81 1023.1
20 05:53 NE 7 11.27 Overcast OVC006 22.8 21.7 94% 76.78 1022.9
20 04:53 N 7 16.09 Overcast OVC005 22.8 21.7 94% 76.76 1022.5
20 03:53 NE 6 16.09 Overcast OVC005 22.8 21.7 94% 76.73 1022.4
20 02:53 N 6 16.09 Overcast OVC006 22.8 21.1 90% 76.73 1022.3
20 01:53 NW 6 14.48 Overcast OVC004 22.8 21.1 90% 76.76 1022.6
20 00:53 Calm 16.09 Mostly Cloudy FEW005 BKN080 22.2 21.1 23.3 22.2 94% 76.76 1022.6
19 23:53 N 6 16.09 Mostly Cloudy FEW008 BKN050 BKN070 22.2 21.1 94% 76.76 1022.5
19 22:53 NE 6 16.09 Overcast OVC009 22.8 21.1 90% 76.73 1022.3
19 21:53 N 7 16.09 Overcast OVC008 22.8 21.1 90% 76.71 1022.0
19 20:53 NE 9 16.09 Overcast OVC009 22.8 21.1 90% 76.68 1021.5
19 19:53 NE 9 16.09 Overcast OVC012 22.8 21.1 90% 76.66 1021.1
19 18:53 NE 9 16.09 Overcast FEW075 BKN095 OVC110 23.3 21.1 24.4 21.7 88% 76.63 1020.8 0.43
19 17:53 NE 15 16.09 Mostly Cloudy BKN014 BKN110 23.9 21.1 84% 24 76.63 1020.8
19 16:53 NE 13 16.09 Light Rain SCT008 BKN013 OVC060 23.3 21.1 88% 76.63 1021.0 0.03
19 15:53 NE 11 8.05 Rain Fog/Mist FEW055 BKN075 OVC090 22.2 20.6 91% 76.63 1021.0 0.38 0.41
19 14:53 E 9 8.05 Light Rain Fog/Mist SCT009 BKN033 OVC043 22.2 20.6 91% 76.66 1021.2 0.03
19 13:53 NE 13 14.48 Light Rain FEW009 OVC036 22.2 20.6 91% 76.68 1021.7
19 12:53 NE 11 16.09 Overcast SCT008 OVC039 22.2 20 22.2 20.6 87% 76.71 1021.8 0.08 0.53
19 11:53 E 9 16.09 Light Rain FEW012 OVC042 21.7 20 90% 76.68 1021.4 0.03
19 10:53 NW 7 6.44 Light Rain Fog/Mist SCT007 BKN012 OVC032 21.7 20 90% 76.68 1021.5 0.15
19 09:53 SE 7 16.09 Overcast OVC100 21.7 19.4 87% 76.61 1020.5 0.03 0.28
19 08:53 E 11 16.09 Light Rain FEW033 BKN120 21.1 18.9 87% 76.53 1019.4 0.13
19 07:53 E 11 4.83 Light Rain Fog/Mist BKN090 BKN120 20.6 18.9 90% 76.5 1019.0 0.13
19 06:53 E 11 16.09 Light Rain FEW055 OVC090 20.6 18.9 26.7 20.6 90% 76.45 1018.3 0.03 1.73
19 05:53 NE 9 14.48 Light Rain FEW046 BKN080 OVC090 20.6 18.9 90% 76.43 1018.0 0.36
19 04:53 N 6 6.44 Rain Fog/Mist OVC055 21.1 20 93% 76.38 1017.1 0.56
19 03:53 NW 13 11.27 Thunderstorm in Vicinity Light Rain SCT005 OVC049 21.7 20 90% 76.33 1016.7 0.23 0.79
Date Time (cdt) Wind (kph) Vis. (km) Weather Sky Cond. Air Dwpt Max. Min. Relative Humidity Wind Chill (°C) Heat Index (°C) altimeter (cm) sea level (mb) 1 hr 3 hr 6 hr
6 hour
Temperature (ºC) Pressure Precipitation (cm)